Home   Weather   Aarau   Past weeks

Flag for Switzerland Past Weather in Aarau, Aargau, Switzerland — Yesterday and Last 2 Weeks

Now
31 °F

Chilly.


Feels Like: 26 °F
Forecast: 19 / 37 °F
Wind: 5 mph from East

Location: Wynau

Current Time: Dec 6, 2016 at 11:01:15 pm

Latest Report: Dec 6, 2016 at 9:00 pm


Visibility: N/A

Pressure: 30.54 "Hg

Humidity: 99%

Dew Point: 31 °F

Location of AarauLocation

Past Weather in Aarau — Graph

°F

Aarau Temperature Yesterday

Maximum temperature yesterday: 33 °F (at 3:00 pm)
Minimum temperature yesterday: 29 °F (at 8:00 am)
Average temperature yesterday: 31 °F

High & Low Weather Summary for the Past Weeks

 TemperatureHumidityPressure
High54 °F (Nov 22, 2:00 pm)100% (Nov 21, 10:00 pm)30.68 "Hg (Nov 21, 10:00 pm)
Low23 °F (Nov 30, 5:00 am)50% (Nov 28, 4:00 pm)29.68 "Hg (Nov 21, 9:00 pm)
Average36 °F89%30.22 "Hg
* Reported Nov 21 9:00 pm — Dec 6 9:00 pm, Aarau, Weather by CustomWeather, © 2016

Note: Actual official high and low records may vary slightly from our data, if they occured in-between our weather recording intervals... More about our weather records

Advertising

Aarau Weather History for the Previous 24 Hours

Scroll right to see more
 ConditionsComfort  
Time TempWeatherWind HumidityBarometerVisibility
9:00 pm
Tue, Dec 6
31 °FChilly.5 mph99%30.54 "HgN/A
8:00 pm31 °FChilly.3 mph100%30.55 "HgN/A
6:00 pm31 °FChilly.3 mph100%30.53 "HgN/A
5:00 pm31 °FChilly.2 mph100%30.52 "HgN/A
4:00 pm32 °FChilly.1 mph98%30.51 "HgN/A
3:00 pm33 °FChilly.2 mph96%30.50 "HgN/A
2:00 pm32 °FChilly.2 mph96%30.50 "HgN/A
1:00 pm31 °FChilly.1 mph97%30.51 "HgN/A
12:00 pm31 °FChilly.2 mph96%30.52 "HgN/A
11:00 am30 °FChilly.1 mph98%30.53 "HgN/A
10:00 am30 °FChilly.3 mph97%30.53 "HgN/A
9:00 am30 °FChilly.3 mph96%30.52 "HgN/A
8:00 am30 °FChilly.3 mph96%30.51 "HgN/A
7:00 am30 °FChilly.2 mph97%30.49 "HgN/A
6:00 am31 °FChilly.2 mph94%30.48 "HgN/A
5:00 am30 °FChilly.2 mph94%30.48 "HgN/A
4:00 am30 °FChilly.2 mph95%30.48 "HgN/A
3:00 am30 °FChilly.2 mph96%30.48 "HgN/A
2:00 am30 °FChilly.2 mph97%30.47 "HgN/A
1:00 am30 °FChilly.3 mph96%30.47 "HgN/A
12:00 am30 °FChilly.2 mph97%30.47 "HgN/A
11:00 pm
Mon, Dec 5
31 °FChilly.2 mph98%30.47 "HgN/A
Weather by CustomWeather, © 2016

See weather overviewHow to use our weather pages